Location: Cartwright
(53.7070°N, 57.0233°W)
Time: 13:15:25
(UTC-03:-30)

ISS - Visible Passes

Search period start: 02 December 2020 00:00
Search period end: 12 December 2020 00:00
Orbit: 418 x 420 km, 51.6° (Epoch: 02 December)

Date Brightness Start Highest point End Pass type
(mag) Time Alt. Az. Time Alt. Az. Time Alt. Az.
02 Dec -3.3 16:49:00 10° WSW 16:52:20 61° S 16:55:41 10° E visible
02 Dec -2.9 18:25:43 10° W 18:28:56 43° SSW 18:29:15 41° S visible
03 Dec -3.1 17:38:09 10° W 17:41:26 51° SSW 17:43:45 17° ESE visible
03 Dec -1.0 19:15:12 10° W 19:16:43 18° WSW 19:16:43 18° WSW visible
04 Dec -3.2 16:50:35 10° W 16:53:55 58° S 16:57:14 10° ESE visible
04 Dec -2.0 18:27:27 10° W 18:30:22 27° SSW 18:31:19 23° S visible
05 Dec -2.2 17:39:48 10° W 17:42:54 34° SSW 17:46:00 10° SE visible
05 Dec -0.6 19:18:11 10° SW 19:18:58 11° SW 19:19:03 11° SW visible
06 Dec -2.5 16:52:11 10° W 16:55:23 43° SSW 16:58:36 10° SE visible
06 Dec -0.9 18:29:35 10° WSW 18:31:37 15° SW 18:33:39 10° S visible
07 Dec -1.2 17:41:37 10° W 17:44:13 20° SSW 17:46:46 10° SSE visible
08 Dec -1.5 16:53:50 10° W 16:56:45 27° SSW 16:59:38 10° SSE visible
09 Dec -0.3 17:44:29 10° SW 17:45:19 11° SW 17:46:07 10° SSW visible
10 Dec -0.6 16:55:52 10° WSW 16:57:54 15° SW 16:59:56 10° S visible
